Aeroporto :
LOGIN :

Iscrizione | Disclaimer

   EN    FR    IT 

 










Sommario :    VFR   VFR Marginale   IFR   IFR Intensivo   IFR Molto Intensivo
Visibilità : 
Base nubi : 
>= 8 km
>= 3000ft
5 / 8 km
1000 / 3000 ft
1500m / 5 km
500 / 1000 ft
800 / 1500m
200 / 500 ft
< 800m
< 200 ft
Simboli :   Temporali  Nebbia  Neve Forte  Precipitazioni Forti  Vento > 20 kt
SIGMETs :   Varie  Temporali  Ghiacco  Turbolenza  Onda orograficha  Ceneri Vulcaniche






- Altitudine del aeroporto : 1249 ft


ETSN - Neuburg AB

ULTIMO METAR :
  • 030020Z VRB01KT 9999 FEW080 BKN220 10/07 Q1011 BLU+

METARs OBSOLETI :
  • 022320Z 27003KT 9999 FEW080 BKN240 12/08 Q1011 BLU+
  • 022220Z 14002KT 9999 FEW080 BKN240 12/08 Q1012 BLU+
  • 022120Z 26002KT 9999 FEW080 BKN280 15/08 Q1012 BLU+

TAF COR TAF ETSN
Valido dal 02 a 23 ore il 03 a 08 ore UTC


022216Z 0223/0308 VRB03KT 9999 NSW FEW070 SCT250 BY ETGL



MetMap, La meteo Aeronautica in un colpo d'occhio ! - Copyright ORBIFLY Dicembre 2007 - Disclaimer

ORBIFLY MET'MAP TEAM :

Programmazione e sviluppo : Alexandra Zaïnal
Concezione : Baudouin d'Aumeries
Aiuto per la programmazione : Marc-Olivier Méhu
Supporto tecnico e logistico : Manuel Goepfert
Aiuto per la traduzione : Arnaldo La Scala

Contatto : metmap@orbifly.com




FONTI E CREDITI :

   NOAA